Weather History for KFBL - April, 2014

Change the Weather History Date:

Wednesday, April 23, 2014

  Actual Average Record
Temperature  
Mean Temperature 45 °F -  
Max Temperature 48 °F 60 °F 87 °F (1960)
Min Temperature 42 °F 38 °F 26 °F (2015)
Degree Days  
Heating Degree Days 20    
Moisture  
Dew Point 29 °F    
Average Humidity 54    
Maximum Humidity 76    
Minimum Humidity 32    
Precipitation  
Precipitation 0.11 in - - ()
Sea Level Pressure  
Sea Level Pressure 30.02 in    
Wind  
Wind Speed 10 mph (ESE)    
Max Wind Speed 21 mph    
Max Gust Speed 28 mph    
Visibility 10 miles    
Events Rain    
Averages and records for this station are not official NWS values.
T = Trace of Precipitation, MM = Missing Value Source: NWS Daily Summary

Daily Weather History Graph

Daily Weather History Graph

Search for Another Location

Airport or City:

Trip Planner

Search our weather history database for the weather conditions in past years. The results will help you decide how hot, cold, wet, or windy it might be!

Date:

Astronomy

Apr. 23, 2014 Rise Set
Actual Time 6:16 AM CDT 8:07 PM CDT
Civil Twilight 5:45 AM CDT 8:38 PM CDT
Nautical Twilight 5:07 AM CDT 9:16 PM CDT
Astronomical Twilight 4:26 AM CDT 9:58 PM CDT
Moon 3:02 AM CDT (4/23) 2:03 PM CDT (4/23)
Length of Visible Light 14h 53m
Length of Day
13h 51m
Waning Crescent, 34% of the Moon is Illuminated
Apr 23
Waning Crescent
Apr 29
New
May 6
First Quarter
May 14
Full
May 21
Last Quarter

Hourly Weather History & Observations

Time (CDT) Temp. Windchill Dew Point Humidity Pressure Visibility Wind Dir Wind Speed Gust Speed Precip Events Conditions
12:14 AM 46.4 °F 44.3 °F 24.8 °F 43% 30.08 in 10.0 mi ENE 4.6 mph - N/A   Clear
12:34 AM 48.2 °F - 23.0 °F 37% 30.07 in 10.0 mi East 5.8 mph - N/A   Clear
12:53 AM 48.2 °F - 21.2 °F 34% 30.07 in 10.0 mi East 6.9 mph - N/A   Clear
1:14 AM 48.2 °F - 21.2 °F 34% 30.07 in 10.0 mi East 8.1 mph - N/A   Clear
1:34 AM 48.2 °F - 21.2 °F 34% 30.07 in 10.0 mi East 5.8 mph - N/A   Clear
1:54 AM 48.2 °F - 21.2 °F 34% 30.07 in 10.0 mi East 5.8 mph - N/A   Clear
2:14 AM 48.2 °F - 19.4 °F 32% 30.07 in 10.0 mi East 5.8 mph - N/A   Clear
2:33 AM 48.2 °F - 19.4 °F 32% 30.08 in 10.0 mi East 4.6 mph - N/A   Clear
2:54 AM 48.2 °F - 19.4 °F 32% 30.08 in 10.0 mi East 8.1 mph - N/A   Clear
3:14 AM 48.2 °F - 21.2 °F 34% 30.07 in 10.0 mi ESE 6.9 mph - N/A   Clear
3:33 AM 46.4 °F 41.1 °F 21.2 °F 37% 30.08 in 10.0 mi ESE 11.5 mph 16.1 mph N/A   Clear
3:54 AM 46.4 °F 40.4 °F 21.2 °F 37% 30.08 in 10.0 mi ESE 13.8 mph - N/A   Clear
4:14 AM 46.4 °F 41.1 °F 23.0 °F 40% 30.08 in 10.0 mi ESE 11.5 mph - N/A   Clear
4:34 AM 46.4 °F 41.5 °F 24.8 °F 43% 30.08 in 10.0 mi ESE 10.4 mph - N/A   Clear
4:54 AM 46.4 °F 41.5 °F 24.8 °F 43% 30.08 in 10.0 mi ESE 10.4 mph - N/A   Clear
5:14 AM 46.4 °F 41.9 °F 24.8 °F 43% 30.08 in 10.0 mi ESE 9.2 mph - N/A   Clear
5:34 AM 44.6 °F 39.2 °F 24.8 °F 46% 30.08 in 10.0 mi ESE 10.4 mph - N/A   Clear
5:54 AM 44.6 °F 39.2 °F 24.8 °F 46% 30.08 in 10.0 mi ESE 10.4 mph - N/A   Clear
6:14 AM 44.6 °F 38.1 °F 24.8 °F 46% 30.08 in 10.0 mi ESE 13.8 mph - N/A   Clear
6:34 AM 44.6 °F 38.4 °F 24.8 °F 46% 30.08 in 10.0 mi ESE 12.7 mph 17.3 mph N/A   Clear
6:54 AM 44.6 °F 38.4 °F 26.6 °F 49% 30.09 in 10.0 mi ESE 12.7 mph - N/A   Mostly Cloudy
7:13 AM 44.6 °F 38.4 °F 26.6 °F 49% 30.09 in 10.0 mi ESE 12.7 mph - N/A   Mostly Cloudy
7:34 AM 44.6 °F 38.1 °F 26.6 °F 49% 30.10 in 10.0 mi SE 13.8 mph 18.4 mph N/A   Scattered Clouds
7:54 AM 46.4 °F 40.4 °F 26.6 °F 46% 30.11 in 10.0 mi SE 13.8 mph 18.4 mph N/A   Clear
8:14 AM 46.4 °F 40.7 °F 26.6 °F 46% 30.10 in 10.0 mi SE 12.7 mph 18.4 mph N/A   Mostly Cloudy
8:34 AM 46.4 °F 39.8 °F 24.8 °F 43% 30.09 in 10.0 mi SE 16.1 mph - N/A   Scattered Clouds
8:53 AM 46.4 °F 39.8 °F 24.8 °F 43% 30.08 in 10.0 mi SE 16.1 mph 21.9 mph N/A   Mostly Cloudy
9:14 AM 46.4 °F 39.2 °F 26.6 °F 46% 30.08 in 10.0 mi SE 18.4 mph - N/A   Overcast
9:34 AM 46.4 °F 40.1 °F 26.6 °F 46% 30.07 in 10.0 mi SSE 15.0 mph 18.4 mph N/A   Overcast
9:53 AM 46.4 °F 38.7 °F 26.6 °F 46% 30.08 in 10.0 mi SE 20.7 mph 27.6 mph N/A   Mostly Cloudy
10:14 AM 46.4 °F 39.8 °F 26.6 °F 46% 30.09 in 10.0 mi SE 16.1 mph 25.3 mph N/A   Light Drizzle
10:34 AM 46.4 °F 40.1 °F 28.4 °F 50% 30.10 in 10.0 mi SSE 15.0 mph 21.9 mph N/A   Drizzle
10:54 AM 44.6 °F 37.8 °F 30.2 °F 57% 30.10 in 10.0 mi SE 15.0 mph 20.7 mph N/A Rain Light Rain
11:14 AM 44.6 °F 38.1 °F 33.8 °F 66% 30.09 in 10.0 mi SE 13.8 mph 18.4 mph 0.01 in Rain Light Rain
11:34 AM 42.8 °F 35.8 °F 33.8 °F 70% 30.09 in 10.0 mi ESE 13.8 mph - 0.04 in Rain Rain
12:14 PM 42.8 °F 36.2 °F 33.8 °F 70% 30.07 in 10.0 mi ESE 12.7 mph - 0.03 in Rain Light Rain
12:34 PM 42.8 °F 36.2 °F 35.6 °F 76% 30.06 in 7.0 mi ESE 12.7 mph 19.6 mph 0.06 in Rain Rain
12:54 PM 42.8 °F 36.2 °F 33.8 °F 70% 30.06 in 10.0 mi ESE 12.7 mph 19.6 mph 0.07 in Rain Light Rain
1:14 PM 42.8 °F 36.6 °F 33.8 °F 70% 30.05 in 10.0 mi East 11.5 mph - N/A   Overcast
1:33 PM 42.8 °F 37.0 °F 35.6 °F 76% 30.04 in 7.0 mi East 10.4 mph 16.1 mph N/A Rain Light Rain
1:54 PM 42.8 °F 37.0 °F 35.6 °F 76% 30.04 in 10.0 mi East 10.4 mph 17.3 mph N/A   Overcast
2:14 PM 44.6 °F 38.4 °F 33.8 °F 66% 30.03 in 10.0 mi East 12.7 mph 17.3 mph N/A   Overcast
2:34 PM 44.6 °F 38.4 °F 33.8 °F 66% 30.01 in 10.0 mi East 12.7 mph 20.7 mph N/A   Overcast
2:54 PM 44.6 °F 38.1 °F 33.8 °F 66% 30.00 in 10.0 mi East 13.8 mph 18.4 mph N/A   Overcast
3:14 PM 44.6 °F 37.2 °F 33.8 °F 66% 29.99 in 10.0 mi East 17.3 mph - N/A   Overcast
3:34 PM 46.4 °F 40.1 °F 33.8 °F 62% 29.98 in 10.0 mi East 15.0 mph 19.6 mph N/A   Overcast
3:54 PM 46.4 °F 40.4 °F 33.8 °F 62% 29.97 in 10.0 mi East 13.8 mph 18.4 mph N/A   Overcast
4:14 PM 46.4 °F 41.1 °F 33.8 °F 62% 29.97 in 10.0 mi East 11.5 mph 16.1 mph N/A   Light Drizzle
4:34 PM 46.4 °F 41.5 °F 33.8 °F 62% 29.96 in 10.0 mi East 10.4 mph 17.3 mph N/A Rain Light Rain
4:54 PM 44.6 °F 38.8 °F 33.8 °F 66% 29.93 in 10.0 mi East 11.5 mph 18.4 mph N/A Rain Rain
5:14 PM 44.6 °F 39.7 °F 33.8 °F 66% 29.94 in 10.0 mi East 9.2 mph 19.6 mph N/A   Overcast
5:34 PM 44.6 °F 38.1 °F 33.8 °F 66% 29.94 in 10.0 mi East 13.8 mph - N/A   Overcast
5:54 PM 44.6 °F 38.8 °F 33.8 °F 66% 29.93 in 10.0 mi East 11.5 mph - N/A   Overcast
6:14 PM 46.4 °F 42.4 °F 33.8 °F 62% 29.93 in 10.0 mi East 8.1 mph - N/A   Overcast
6:34 PM 46.4 °F 42.4 °F 33.8 °F 62% 29.92 in 10.0 mi East 8.1 mph - N/A   Overcast
6:54 PM 44.6 °F 40.2 °F 33.8 °F 66% 29.91 in 10.0 mi East 8.1 mph - N/A   Overcast
7:14 PM 44.6 °F 39.7 °F 33.8 °F 66% 29.90 in 10.0 mi East 9.2 mph - N/A   Overcast
7:34 PM 44.6 °F 40.2 °F 33.8 °F 66% 29.89 in 10.0 mi ENE 8.1 mph - N/A   Overcast
7:54 PM 46.4 °F 43.5 °F 33.8 °F 62% 29.90 in 10.0 mi East 5.8 mph - N/A   Overcast
8:14 PM 46.4 °F 43.5 °F 33.8 °F 62% 29.90 in 10.0 mi East 5.8 mph - N/A   Overcast
8:34 PM 46.4 °F 44.3 °F 33.8 °F 62% 29.91 in 10.0 mi ENE 4.6 mph - N/A   Overcast
8:54 PM 46.4 °F 42.9 °F 33.8 °F 62% 29.91 in 10.0 mi East 6.9 mph - N/A   Overcast
9:13 PM 48.2 °F - 32.0 °F 54% 29.91 in 10.0 mi ESE 12.7 mph 18.4 mph N/A   Overcast
9:34 PM 48.2 °F - 32.0 °F 54% 29.90 in 10.0 mi ESE 13.8 mph - N/A   Overcast
9:54 PM 48.2 °F - 32.0 °F 54% 29.90 in 10.0 mi ESE 12.7 mph 20.7 mph N/A   Overcast
10:13 PM 48.2 °F - 33.8 °F 58% 29.91 in 10.0 mi ESE 15.0 mph 19.6 mph N/A   Overcast
10:34 PM 48.2 °F - 33.8 °F 58% 29.91 in 10.0 mi ESE 11.5 mph 21.9 mph N/A   Overcast
10:54 PM 46.4 °F 39.8 °F 33.8 °F 62% 29.90 in 10.0 mi ESE 16.1 mph 24.2 mph N/A   Overcast
11:14 PM 48.2 °F - 33.8 °F 58% 29.89 in 10.0 mi ESE 13.8 mph 25.3 mph N/A   Overcast
11:34 PM 48.2 °F - 33.8 °F 58% 29.89 in 10.0 mi ESE 15.0 mph 18.4 mph N/A   Overcast
11:54 PM 48.2 °F - 33.8 °F 58% 29.89 in 10.0 mi East 10.4 mph 19.6 mph N/A   Overcast